Regional Weather Roundup
Issued by NWS Little Rock, AR

Home | Current Version | Previous Version | Graphics & Text | Print | Product List | Glossary On
Versions: 1 2 3 4 5 6 7 8 9 10 11 12 13 14 15 16 17 18 19 20 21 22 23 24 25 26 27 28 29 30 31 32 33 34 35 36 37 38 39 40 41 42 43 44 45 46 47 48 49 50
000
ASUS44 KLZK 241305
RWRLZK

WEATHER ROUNDUP FOR ARKANSAS
NATIONAL WEATHER SERVICE LITTLE ROCK AR
800 AM CDT FRI MAR 24 2017

NOTE: "FAIR" INDICATES FEW OR NO CLOUDS BELOW 12,000 FEET WITH NO
SIGNIFICANT WEATHER AND/OR OBSTRUCTIONS TO VISIBILITY.

ARZ001-003-010-029-241400-
NORTHWEST ARKANSAS

CITY           SKY/WX    TMP DP  RH WIND       PRES   REMARKS
FAYETTEVILLE   CLOUDY    64  46  52 S22G30    29.93R
FORT SMITH     MOCLDY    68  49  50 S16       29.97R
HARRISON       MOCLDY    65  49  56 S15G29    29.97F
BENTONVILLE    PTCLDY    64  39  39 S16G22    29.93R
ROGERS         PTCLDY    65  43  44 S20G28    29.93R
SILOAM SPGS    PTCLDY    63  45  51 S24G30    29.92R
HIGHFILL       LGT RAIN  65  45  48 S28G38    29.92R
SPRINGDALE     CLEAR     64  43  45 S17G32    29.94R
$$

ARZ004-005-016-241400-
NORTH CENTRAL ARKANSAS

CITY           SKY/WX    TMP DP  RH WIND       PRES   REMARKS
BATESVILLE     CLOUDY    64  55  72 S9G16     30.09R
FLIPPIN        CLOUDY    66  48  52 S6        29.99R
MTN HOME       CLOUDY    65  52  62 S7        30.01R
$$

ARZ040-041-241400-
WEST CENTRAL ARKANSAS

CITY           SKY/WX    TMP DP  RH WIND       PRES   REMARKS
MENA           CLOUDY    64  61  88 S5        30.02S
MOUNT IDA      CLOUDY    65  56  72 VRB5      30.02S
$$

ARZ009-017-025-026-028-241400-
NORTHEAST ARKANSAS

CITY           SKY/WX    TMP DP  RH WIND       PRES   REMARKS
CORNING        FAIR      64  59  82 S20G26    30.10R
JONESBORO      PTSUNNY   63  58  83 S9        30.12R
NEWPORT        MOSUNNY   64  58  80 S17       30.11R
WALNUT RIDGE   MOSUNNY   61  54  77 S13       30.10R
BLYTHEVILLE    MOSUNNY   65  59  81 S13       30.12R
$$

ARZ022-023-033-042-044-241400-
CENTRAL ARKANSAS

CITY           SKY/WX    TMP DP  RH WIND       PRES   REMARKS
LITTLE ROCK    CLOUDY    66  61  84 S7        30.09R
N LITTLE ROCK    N/A     65  60  81 S6        30.09R
JACKSONVILLE   CLOUDY    64  59  83 E5        30.08S
CONWAY           N/A     66  59  77 S7        30.07R
SEARCY         CLOUDY    65  61  87 S10       30.11S
HOT SPRINGS    MOCLDY    65  57  75 S8        30.07S
RUSSELLVILLE   MOCLDY    67  53  61 S7G18     30.04R
CLINTON        FAIR      66  57  72 S9G17     30.07R
$$

ARZ036-241400-
EAST ARKANSAS

CITY           SKY/WX    TMP DP  RH WIND       PRES   REMARKS
WEST MEMPHIS   PTSUNNY   66  60  81 S17       30.09R
$$

ARZ050-053-066-070-073-241400-
SOUTHWEST ARKANSAS

CITY           SKY/WX    TMP DP  RH WIND       PRES   REMARKS
ARKADELPHIA    CLOUDY    63  58  83 CALM      30.08R
CAMDEN         PTCLDY    66  59  77 S9        30.08S
TEXARKANA      CLOUDY    65  60  84 S8        30.04S
EL DORADO      MOCLDY    66  61  84 SE7       30.09R
DE QUEEN       PTCLDY    63  59  87 SE6       30.00S
$$

ARZ056-057-069-241400-
SOUTHEAST ARKANSAS

CITY           SKY/WX    TMP DP  RH WIND       PRES   REMARKS
PINE BLUFF     CLOUDY    67  60  78 S10       30.11R
STUTTGART      CLOUDY    66  54  63 S12       30.14R
MONTICELLO       N/A     66  60  81 MISG      30.11R

$$





USA.gov is the U.S. government's official web portal to all federal, state and local government web resources and services.